Berlin, NH

2:17 PM EDT on July 22, 2017 (GMT -0400)
Berlin Municipal

Weather History for KBML - August, 2014

Change the Weather History Date:

Thursday, August 7, 2014

  Actual Average Record
Temperature  
Mean Temperature 55 °F -  
Max Temperature 68 °F 76 °F 88 °F (1996)
Min Temperature 44 °F 49 °F 35 °F (2010)
Degree Days  
Heating Degree Days 10    
Growing Degree Days 5 (Base 50)    
Moisture  
Dew Point 51 °F    
Average Humidity 89    
Maximum Humidity 100    
Minimum Humidity 65    
Precipitation  
Precipitation 0.02 in - - ()
Sea Level Pressure  
Sea Level Pressure 29.91 in    
Wind  
Wind Speed 1 mph (North)    
Max Wind Speed 14 mph    
Max Gust Speed 20 mph    
Visibility 8 miles    
Events Fog , Rain , Thunderstorm    
Averages and records for this station are not official NWS values.
T = Trace of Precipitation, MM = Missing Value Source: NWS Daily Summary

Daily Weather History Graph

Daily Weather History Graph

Search for Another Location

Airport or City:

Trip Planner

Search our weather history database for the weather conditions in past years. The results will help you decide how hot, cold, wet, or windy it might be!

Date:

Astronomy

Aug. 07, 2014 Rise Set
Actual Time 5:38 AM EDT 8:02 PM EDT
Civil Twilight 5:05 AM EDT 8:34 PM EDT
Nautical Twilight 4:24 AM EDT 9:15 PM EDT
Astronomical Twilight 3:38 AM EDT 10:00 PM EDT
Moon 5:17 PM EDT (8/7) 2:03 AM EDT (8/7)
Length of Visible Light 15h 29m
Length of Day
14h 24m
Waxing Gibbous, 86% of the Moon is Illuminated
Aug 7
Waxing Gibbous
Aug 10
Full
Aug 17
Last Quarter
Aug 25
New
Sep 2
First Quarter

Hourly Weather History & Observations

Time (EDT) Temp. Windchill Dew Point Humidity Pressure Visibility Wind Dir Wind Speed Gust Speed Precip Events Conditions
12:38 AM 48.0 °F - 46.0 °F 93% 29.89 in 10.0 mi Calm Calm - N/A   Scattered Clouds
12:52 AM 46.9 °F - 45.0 °F 93% 29.90 in 10.0 mi Calm Calm - N/A   Partly Cloudy
1:52 AM 46.0 °F - 45.0 °F 96% 29.89 in 10.0 mi Calm Calm - N/A   Mostly Cloudy
2:11 AM 45.0 °F - 44.1 °F 97% 29.88 in 1.5 mi Calm Calm - N/A   Mostly Cloudy
2:18 AM 44.1 °F 42.5 °F 43.0 °F 96% 29.88 in 1.0 mi SE 3.5 mph - N/A   Mist
2:21 AM 45.0 °F 43.5 °F 43.0 °F 93% 29.88 in 2.0 mi SSE 3.5 mph - N/A   Mostly Cloudy
2:26 AM 46.0 °F - 45.0 °F 96% 29.88 in 4.0 mi Calm Calm - N/A   Scattered Clouds
2:52 AM 46.0 °F - 44.1 °F 93% 29.88 in 10.0 mi Calm Calm - N/A   Mostly Cloudy
3:00 AM 45.0 °F - 44.1 °F 97% 29.88 in 1.8 mi Calm Calm - N/A   Mostly Cloudy
3:04 AM 46.0 °F - 44.1 °F 93% 29.89 in 0.8 mi Calm Calm - N/A   Mist
3:17 AM 45.0 °F - 44.1 °F 97% 29.89 in 0.2 mi Calm Calm - N/A Fog Fog
3:28 AM 46.0 °F - 45.0 °F 96% 29.89 in 1.0 mi Calm Calm - N/A   Overcast
3:30 AM 46.0 °F - 45.0 °F 96% 29.89 in 2.5 mi Calm Calm - N/A   Mostly Cloudy
3:34 AM 46.0 °F - 45.0 °F 96% 29.88 in 6.0 mi Calm Calm - N/A   Mostly Cloudy
3:52 AM 46.0 °F - 45.0 °F 96% 29.90 in 8.0 mi Calm Calm - N/A   Mostly Cloudy
4:20 AM 46.9 °F - 46.0 °F 97% 29.89 in 1.8 mi Calm Calm - N/A   Overcast
4:27 AM 46.9 °F - 46.9 °F 100% 29.89 in 3.0 mi Calm Calm - N/A   Overcast
4:52 AM 48.0 °F - 46.9 °F 96% 29.89 in 10.0 mi Calm Calm - N/A   Overcast
5:52 AM 50.0 °F - 48.9 °F 96% 29.90 in 10.0 mi Calm Calm - N/A   Overcast
6:18 AM 51.1 °F - 48.9 °F 92% 29.90 in 10.0 mi Calm Calm - N/A   Overcast
6:31 AM 51.1 °F - 50.0 °F 96% 29.90 in 10.0 mi Calm Calm - N/A   Overcast
6:47 AM 51.8 °F - 50.0 °F 94% 29.90 in 10.0 mi Calm Calm - N/A   Overcast
6:52 AM 52.0 °F - 51.1 °F 97% 29.91 in 10.0 mi Calm Calm - N/A   Overcast
7:37 AM 54.0 °F - 52.0 °F 93% 29.91 in 10.0 mi Calm Calm - N/A   Overcast
7:52 AM 54.0 °F - 53.1 °F 97% 29.91 in 10.0 mi Calm Calm - 0.00 in Rain Light Rain
8:13 AM 55.9 °F - 54.0 °F 93% 29.91 in 10.0 mi Calm Calm - 0.00 in   Overcast
8:52 AM 60.1 °F - 55.9 °F 86% 29.92 in 10.0 mi South 3.5 mph - 0.00 in   Mostly Cloudy
9:52 AM 64.0 °F - 55.9 °F 75% 29.91 in 10.0 mi Variable 4.6 mph - N/A   Overcast
10:52 AM 66.9 °F - 55.0 °F 66% 29.92 in 10.0 mi Variable 5.8 mph - N/A   Overcast
11:52 AM 62.1 °F - 57.0 °F 84% 29.92 in 4.0 mi NNE 4.6 mph - 0.02 in Rain Light Rain
12:10 PM 61.0 °F - 57.0 °F 87% 29.91 in 10.0 mi Calm Calm - 0.00 in Rain , Thunderstorm Light Thunderstorms and Rain
12:25 PM 61.0 °F - 55.9 °F 83% 29.91 in 10.0 mi Calm Calm - 0.00 in Rain Light Rain
12:52 PM 62.1 °F - 57.0 °F 84% 29.92 in 10.0 mi Calm Calm - 0.00 in   Overcast
1:05 PM 62.1 °F - 57.0 °F 84% 29.91 in 10.0 mi Calm Calm - N/A Thunderstorm Overcast
1:28 PM 63.0 °F - 57.0 °F 81% 29.91 in 10.0 mi Calm Calm - N/A   Overcast
1:52 PM 63.0 °F - 57.9 °F 84% 29.92 in 10.0 mi Calm Calm - N/A   Overcast
2:52 PM 66.9 °F - 55.9 °F 68% 29.91 in 10.0 mi NNW 13.8 mph 19.6 mph 0.00 in Rain Light Rain
3:52 PM 64.0 °F - 53.1 °F 67% 29.92 in 10.0 mi North 9.2 mph - 0.00 in Rain Light Rain
4:52 PM 66.0 °F - 54.0 °F 65% 29.91 in 10.0 mi NNW 5.8 mph - 0.00 in   Partly Cloudy
5:52 PM 64.9 °F - 55.0 °F 70% 29.92 in 10.0 mi Variable 5.8 mph - N/A   Clear
6:37 PM 62.1 °F - 55.0 °F 78% 29.92 in 10.0 mi Variable 5.8 mph - N/A   Overcast
6:52 PM 62.1 °F - 55.0 °F 78% 29.94 in 10.0 mi Variable 3.5 mph - N/A   Mostly Cloudy
7:05 PM 62.1 °F - 55.0 °F 78% 29.93 in 10.0 mi NW 3.5 mph - N/A   Mostly Cloudy
7:52 PM 61.0 °F - 55.9 °F 83% 29.95 in 10.0 mi Calm Calm - N/A   Overcast
8:52 PM 60.1 °F - 55.9 °F 86% 29.96 in 10.0 mi Variable 3.5 mph - N/A   Mostly Cloudy
9:52 PM 59.0 °F - 57.0 °F 93% 29.96 in 10.0 mi Calm Calm - 0.00 in   Overcast
10:52 PM 57.9 °F - 55.9 °F 93% 29.98 in 10.0 mi Calm Calm - N/A   Overcast
11:52 PM 55.9 °F - 55.0 °F 97% 29.98 in 9.0 mi Calm Calm - N/A   Overcast